Regional Weather Roundup
Issued by NWS Charleston, WV

Home | Current Version | Previous Version | Text Only | Print | Product List | Glossary On
Versions: 1 2 3 4 5 6 7 8 9 10 11 12 13 14 15 16 17 18 19 20 21 22 23 24 25 26 27 28 29 30 31 32 33 34 35
000
ASUS41 KRLX 230110
RWRRLX
West Virginia Regional Weather Roundup
National Weather Service Charleston WV
900 PM EDT WED OCT 22 2014

Note: "fair" indicates few or no clouds below 12,000 feet with no
significant weather and/or obstructions to visibility.

WVZ003-230200-
Northern Panhandle of West Virginia

CITY           SKY/WX    TMP DP  RH WIND       PRES   REMARKS
WHEELING       CLOUDY    48  41  76 N10       30.19R
$$

WVZ009-230200-
Northwest West Virginia

CITY           SKY/WX    TMP DP  RH WIND       PRES   REMARKS
PARKERSBURG    CLOUDY    49  41  74 NW6       30.24R
$$

WVZ006-230200-
Western West Virginia

CITY           SKY/WX    TMP DP  RH WIND       PRES   REMARKS
HUNTINGTON     CLOUDY    49  42  77 N7        30.24R
$$

WVZ015-230200-
West Central West Virginia

CITY           SKY/WX    TMP DP  RH WIND       PRES   REMARKS
CHARLESTON     CLOUDY    49  44  83 NW7       30.22R
$$

WVZ022-031-230200-
North Central West Virginia

CITY           SKY/WX    TMP DP  RH WIND       PRES   REMARKS
CLARKSBURG     CLOUDY    48  42  80 NW6       30.18R
MORGANTOWN     CLOUDY    50  40  68 NW8G17    30.17S
$$

WVZ025-035-042-045-230200-
Southern West Virginia

CITY           SKY/WX    TMP DP  RH WIND       PRES   REMARKS
BECKLEY        CLOUDY    43  40  89 NW9       30.17S
LOGAN          CLOUDY    46  45  93 VRB6G14   30.21S FOG
BLUEFIELD      CLOUDY    44  39  82 NW6       30.17R
LEWISBURG      CLOUDY    48  39  72 NW9       30.13R
$$

WVZ047-230200-
Northern Mountains of West Virginia

CITY           SKY/WX    TMP DP  RH WIND       PRES   REMARKS
ELKINS         CLOUDY    44  42  93 VRB6      30.16R
$$

WVZ052-230200-
Eastern Panhandle of West Virginia

CITY           SKY/WX    TMP DP  RH WIND       PRES   REMARKS
MARTINSBURG    CLOUDY    53  40  61 NW15G23   30.03R
PETERSBURG     CLOUDY    52  40  65 NW12      30.12R
$$



USA.gov is the U.S. government's official web portal to all federal, state and local government web resources and services.